Wetbulb
58.34 55.99 55.93 53.67 45.34 43.06 38.76 40.48 45.14 44.36 45.05 50.28 53.07 50.19 49.22 52.35 52.13 49.32 61.46 66.23 68.36 69.66 71.21 71.45 71.64 72.32 72.48 72.24 72.21 72.16 72.01 71.41 71.14 71.05 71.01 70.86 70.66 70.48 70.42 70.63 70.94 71.25 71.25 71.21 71.12 71.29 71.28 71.09 71.29
55.21 56.66 54.16 49.24 41.57 36.92 37.48 43.17 42.81 45.60 47.86 54.62 54.73 54.64 53.20 52.57 57.65 60.07 63.52 65.83 68.99 70.19 71.04 71.25 70.32 71.78 72.18 72.08 72.03 71.87 71.90 71.60 71.07 71.00 70.88 70.99 71.11 70.82 70.56 70.31 70.10 69.92 69.78 69.79 70.16 70.37 70.36 70.39 70.51
55.35 55.47 50.29 46.27 40.69 36.42 37.57 42.71 45.42 47.05 49.68 52.98 52.53 51.99 53.61 53.41 57.49 61.77 65.71 67.61 69.24 69.92 70.68 70.45 70.15 71.51 71.67 71.65 71.48 71.37 71.10 70.86 70.94 70.68 70.65 70.73 70.75 70.52 70.27 69.98 69.63 69.38 69.43 69.42 69.33 69.42 69.53 69.90 70.17
52.59 52.05 49.21 42.31 39.48 41.93 42.43 44.61 45.44 46.55 50.54 52.90 52.17 50.36 49.06 53.83 58.84 63.80 67.47 68.49 68.63 69.28 69.87 69.34 70.24 71.20 71.08 71.09 70.85 70.67 70.44 70.17 70.03 69.92 69.87 69.88 69.88 69.62 69.41 69.35 69.11 68.92 68.56 68.59 68.62 68.63 68.73 69.06 69.10
51.36 48.44 42.03 40.22 40.55 43.66 45.49 47.11 46.83 46.32 47.79 48.82 51.37 49.74 48.48 55.31 63.13 66.44 66.89 67.93 67.15 67.57 68.72 69.65 69.39 70.31 70.63 70.63 70.17 70.09 69.84 69.79 69.73 69.63 69.62 69.14 68.62 68.22 68.25 68.13 68.18 67.92 68.22 68.57 68.89 68.91 68.85 68.75 68.81
46.02 46.50 38.97 37.43 40.47 44.73 46.95 48.08 47.54 46.98 47.10 47.98 49.30 47.66 49.98 57.62 62.80 64.58 66.02 66.01 66.99 66.39 67.11 68.40 65.88 67.61 68.76 69.33 69.38 68.98 68.32 68.42 68.49 67.88 66.96 66.02 65.07 64.67 64.44 63.99 63.67 63.49 63.28 63.18 63.30 63.07 63.32 63.47 65.21
44.43 42.82 38.88 38.97 39.71 42.23 44.80 46.77 45.53 46.34 46.82 46.48 50.82 48.58 49.13 58.42 63.03 62.45 63.73 63.61 64.27 65.54 65.89 65.36 65.76 64.41 63.79 64.41 64.88 65.30 64.88 63.84 63.14 62.44 61.38 60.24 59.63 59.45 59.63 59.83 59.94 59.79 59.69 59.88 59.99 59.84 59.98 59.75 59.96
45.88 44.37 39.52 39.75 40.20 40.82 45.77 45.51 47.51 46.21 46.13 48.58 50.57 47.50 48.61 56.68 62.06 58.85 59.74 61.81 62.18 62.52 63.37 62.13 60.77 60.54 60.91 60.67 60.29 60.50 60.65 59.44 58.42 57.34 56.06 55.22 55.26 55.37 55.89 55.49 56.67 57.04 56.97 57.35 57.38 57.41 57.08 56.57 56.32
48.64 40.65 37.52 40.57 41.10 42.98 45.94 44.47 47.49 47.31 47.31 46.62 48.12 48.60 47.91 60.00 56.10 55.39 55.87 54.90 55.95 55.07 56.88 56.73 55.83 56.07 56.13 56.35 55.89 56.72 56.22 55.29 54.80 54.27 52.70 51.40 51.37 50.51 51.03 52.49 53.12 53.80 53.72 54.32 54.68 54.69 54.00 53.06 52.61
43.08 38.57 40.33 45.23 45.41 44.20 45.47 44.56 45.52 43.91 44.00 44.41 44.70 45.52 53.13 57.35 55.52 53.62 53.00 54.08 52.59 52.67 51.52 52.85 53.45 54.17 53.74 52.58 52.20 51.92 50.87 50.75 50.68 50.32 50.01 49.37 48.75 49.59 48.43 48.66 49.04 49.50 49.38 50.35 51.16 51.15 50.21 49.81 50.53
41.43 38.87 44.82 45.54 46.45 46.07 44.36 42.35 44.19 42.39 42.00 45.28 45.08 45.47 51.89 55.29 55.98 54.21 50.91 52.44 51.01 51.11 50.54 51.21 51.94 51.98 51.44 50.50 49.98 50.19 49.77 49.25 48.84 48.59 48.29 47.77 47.04 47.03 46.93 46.80 46.70 47.14 46.24 46.52 46.85 46.98 47.37 47.79 48.35
37.17 41.66 44.06 45.84 47.66 43.17 40.96 42.19 40.38 41.35 45.23 45.05 44.69 46.15 51.73 54.28 54.66 54.88 50.95 49.87 49.28 48.38 48.85 49.83 50.48 50.02 49.85 49.69 48.70 48.81 48.21 47.61 47.19 46.95 47.14 46.90 46.22 45.94 45.48 45.15 45.25 45.59 45.86 45.29 45.53 45.64 45.79 46.02 46.46
37.47 39.71 43.02 45.23 45.54 43.44 42.08 40.51 41.36 40.86 44.03 42.66 42.90 43.86 49.60 53.28 53.47 51.43 52.24 49.40 48.23 47.85 47.51 48.48 48.93 48.77 48.21 47.87 47.56 47.45 46.76 46.18 45.69 45.89 46.26 46.10 45.14 44.65 44.48 44.02 44.08 43.86 44.41 44.31 44.15 44.34 44.38 44.84 45.21
37.55 39.38 40.75 41.74 42.24 42.50 42.05 43.02 39.99 41.91 43.19 42.48 41.17 42.35 45.44 51.24 51.62 44.99 45.67 47.73 46.36 47.28 46.83 47.44 47.85 47.99 47.55 46.77 46.18 45.52 45.15 44.53 44.84 44.70 44.36 44.45 44.10 43.73 43.02 42.82 42.66 42.80 43.14 43.41 43.39 43.02 43.21 43.34 43.71
37.05 33.64 35.40 36.96 40.44 40.38 39.46 35.48 34.71 42.48 40.74 41.02 40.28 40.56 41.57 46.21 46.21 47.03 47.21 47.28 47.12 47.23 46.67 46.70 46.93 47.09 46.73 45.69 45.01 44.67 44.58 43.94 43.48 42.60 43.02 43.29 42.97 42.32 42.07 41.95 41.68 41.77 42.38 42.30 42.17 41.98 42.47 42.00 42.18
32.17 31.98 27.85 35.60 38.04 39.30 39.77 33.29 39.63 41.97 40.11 40.14 40.36 40.43 40.16 41.78 43.90 47.07 46.15 46.33 45.69 46.37 46.04 46.60 47.73 46.05 44.99 44.18 43.56 43.17 43.04 42.33 41.50 41.47 41.79 42.10 42.23 41.59 41.04 40.68 40.45 41.10 40.99 40.94 40.48 40.65 40.27 40.47 40.50
29.16 24.78 26.79 30.65 36.74 35.61 35.36 32.91 39.37 42.02 38.27 39.84 40.00 38.74 39.35 39.23 39.88 42.09 42.70 44.71 44.55 46.45 45.86 45.92 46.13 44.89 43.65 42.48 42.18 41.90 40.91 40.44 40.15 40.55 40.83 40.84 40.70 40.40 39.83 39.65 39.59 39.69 39.49 39.33 39.19 39.20 39.22 38.77 39.34
24.49 24.93 26.30 26.71 30.61 30.74 28.45 31.31 36.81 35.61 33.60 35.53 35.16 35.59 35.49 36.64 39.47 41.66 40.36 41.55 43.60 45.31 45.95 45.99 44.90 43.43 42.05 41.20 40.05 39.66 39.07 38.92 39.53 39.72 39.64 39.51 39.35 39.11 38.97 38.61 38.28 38.56 38.01 37.75 37.93 37.64 38.92 38.67 38.77
27.29 26.44 25.28 27.22 30.77 28.83 28.16 28.60 33.34 36.41 33.20 34.45 34.18 34.08 33.91 34.22 38.34 38.48 39.65 39.70 40.97 43.10 44.26 44.17 42.87 41.59 40.66 39.38 38.26 37.89 38.06 37.67 37.76 38.42 38.67 38.41 38.26 38.22 38.02 37.68 37.34 37.37 36.51 36.36 36.99 37.13 36.94 38.00 39.51
28.24 26.55 26.34 28.29 30.61 28.82 27.26 27.12 32.77 34.87 33.02 35.16 36.35 36.01 37.65 37.23 34.94 35.98 36.49 37.55 39.97 41.84 43.76 43.44 43.16 40.80 40.40 39.73 38.19 38.39 37.49 37.24 37.68 37.48 37.47 37.51 37.39 37.45 37.54 36.63 36.25 36.02 35.70 35.44 35.59 35.93 35.82 37.34 38.10
26.61 25.46 26.07 26.51 28.40 27.82 26.00 24.67 29.06 32.96 33.33 34.86 34.19 37.40 38.18 37.70 36.81 35.68 34.63 36.31 38.86 40.65 42.57 42.87 41.81 40.78 40.02 38.00 36.50 35.71 35.85 35.82 35.75 35.82 35.99 36.03 36.37 36.49 36.22 35.83 35.82 35.46 35.61 34.55 34.74 35.55 34.67 33.49 36.16
24.34 28.66 28.67 27.20 24.87 19.51 26.12 16.44 26.01 30.72 31.01 31.07 32.75 32.86 35.93 36.44 36.90 36.49 35.72 35.38 37.82 40.52 42.58 43.04 41.35 39.79 38.46 37.17 37.19 37.02 36.70 35.73 35.38 35.43 35.27 35.05 35.37 35.08 35.26 35.17 35.01 34.99 35.12 34.33 34.50 35.50 35.07 35.06 33.26
26.87 28.75 28.06 27.62 23.88 22.02 22.35 18.14 24.59 28.00 29.34 33.20 33.95 33.67 34.02 36.33 36.47 35.93 35.96 37.21 38.08 40.29 40.85 41.15 40.06 38.67 37.03 36.80 37.23 36.72 35.43 34.97 34.11 33.88 34.03 33.96 34.15 34.23 33.99 34.18 33.97 34.00 34.53 34.26 34.15 34.25 34.47 35.02 34.17
30.07 28.36 27.54 24.41 22.82 9.60 20.65 21.00 20.59 27.03 30.86 32.39 32.93 34.73 34.72 33.90 34.45 35.80 36.63 37.43 37.31 38.86 39.56 39.00 38.28 36.91 36.01 35.93 35.52 35.77 35.00 33.46 33.12 32.83 33.29 33.16 33.27 33.29 32.93 33.18 33.56 33.67 33.75 33.93 33.76 33.72 33.65 33.69 33.95
28.34 25.54 14.29 12.63 7.55 13.22 19.93 18.51 22.25 30.33 33.75 32.45 32.50 34.43 35.21 34.43 32.78 33.40 34.47 35.55 36.05 36.81 37.63 37.89 37.79 34.85 35.10 34.87 34.30 34.60 34.37 34.07 34.27 33.61 33.25 32.47 32.32 32.19 32.05 32.55 33.14 33.40 33.64 33.76 33.85 33.47 33.48 33.79 33.73
25.70 25.27 19.71 13.92 8.74 12.19 21.13 15.11 24.97 30.92 34.28 34.13 33.41 33.34 33.49 33.88 32.33 33.59 35.32 36.27 35.76 36.59 36.89 37.71 36.67 34.98 34.19 34.09 33.84 33.76 33.81 33.67 33.51 32.88 32.48 32.26 32.09 31.74 31.96 32.80 32.94 32.85 32.97 33.36 33.68 33.70 33.84 34.24 34.25
23.40 20.12 28.30 18.31 9.09 13.35 20.26 23.91 28.49 32.78 32.39 33.82 33.31 32.42 33.44 33.79 32.83 33.62 35.20 36.23 35.74 36.20 36.74 37.17 36.27 35.03 34.23 34.02 33.32 32.71 32.76 32.71 32.38 32.16 32.22 31.84 31.16 31.58 32.19 32.28 32.01 32.18 32.38 32.71 32.97 33.17 33.04 33.71 33.89
25.38 26.90 18.16 19.22 9.41 5.72 14.89 16.98 22.44 29.63 31.14 32.17 32.94 30.99 31.30 32.59 32.96 33.98 34.68 34.90 36.08 36.72 36.81 36.76 36.54 34.90 34.31 33.67 33.33 32.71 32.37 32.39 32.09 31.65 31.32 31.24 31.04 31.26 31.58 31.52 31.74 31.85 32.08 32.42 33.54 33.77 34.00 33.72 34.40
19.80 17.32 20.16 23.29 20.38 10.94 7.67 18.29 25.73 28.32 29.94 30.36 32.31 32.03 31.35 31.84 32.50 33.70 34.03 34.25 35.04 35.53 35.15 35.06 34.93 33.75 33.29 33.59 32.87 32.26 31.95 31.62 31.56 31.64 31.25 31.09 31.13 31.08 31.03 31.25 31.47 31.50 31.75 32.47 32.64 33.47 33.77 33.32 33.45
24.35 22.88 23.21 18.25 13.86 19.99 14.88 20.13 33.54 30.55 30.90 31.79 32.52 33.39 33.11 33.08 33.10 32.45 33.18 33.36 33.32 33.87 33.96 33.98 34.10 33.99 34.00 33.26 32.66 32.33 31.94 31.36 31.16 31.01 30.67 30.84 30.31 30.48 30.34 30.58 31.06 30.89 30.97 31.65 32.20 32.79 33.47 32.86 32.26
MSLP
1014.49 1014.58 1014.54 1015.05 1016.46 1016.76 1016.41 1015.83 1015.12 1014.53 1014.12 1013.16 1012.78 1012.74 1012.42 1012.30 1012.64 1013.19 1012.61 1012.55 1012.54 1012.81 1013.03 1013.35 1013.73 1014.00 1014.34 1014.77 1015.00 1015.25 1015.54 1015.62 1015.82 1016.02 1016.18 1016.46 1016.54 1016.76 1016.98 1017.00 1017.09 1017.13 1017.20 1017.28 1017.31 1017.34 1017.52 1017.61 1017.73
1014.52 1014.59 1014.97 1015.87 1016.58 1016.80 1015.97 1015.27 1014.68 1013.82 1013.43 1013.23 1013.02 1012.85 1012.74 1012.52 1012.62 1012.56 1012.62 1012.65 1012.62 1012.77 1013.17 1013.45 1013.96 1014.21 1014.44 1014.82 1015.07 1015.32 1015.55 1015.80 1016.00 1016.11 1016.33 1016.47 1016.72 1016.95 1017.11 1017.27 1017.41 1017.41 1017.48 1017.51 1017.52 1017.55 1017.72 1017.83 1017.86
1014.50 1014.59 1015.57 1016.22 1016.40 1015.99 1015.42 1014.38 1013.70 1013.43 1013.15 1013.23 1013.23 1013.01 1012.89 1012.60 1012.58 1012.53 1012.65 1012.64 1012.74 1013.05 1013.32 1013.66 1013.97 1014.23 1014.57 1014.91 1015.19 1015.48 1015.74 1015.98 1016.11 1016.39 1016.47 1016.62 1016.87 1017.18 1017.29 1017.52 1017.61 1017.64 1017.62 1017.63 1017.72 1017.80 1017.89 1017.95 1018.05
1014.81 1015.39 1016.35 1016.14 1015.76 1015.18 1014.51 1013.80 1013.60 1013.39 1013.19 1013.07 1013.13 1013.09 1012.94 1012.65 1012.57 1012.51 1012.69 1012.79 1012.94 1013.23 1013.41 1013.75 1013.99 1014.35 1014.68 1015.05 1015.35 1015.58 1015.89 1016.14 1016.36 1016.56 1016.81 1016.98 1017.08 1017.29 1017.42 1017.62 1017.72 1017.78 1017.83 1017.93 1017.86 1017.91 1018.01 1018.00 1018.13
1015.18 1015.85 1016.21 1016.01 1015.21 1014.55 1014.08 1013.65 1013.54 1013.39 1013.11 1012.97 1013.05 1013.07 1012.98 1012.72 1012.79 1012.75 1012.81 1012.98 1013.05 1013.36 1013.64 1013.84 1014.10 1014.43 1014.83 1015.16 1015.46 1015.72 1016.06 1016.36 1016.55 1016.74 1016.96 1017.31 1017.50 1017.52 1017.63 1017.78 1017.92 1018.01 1018.02 1018.05 1017.99 1018.06 1018.13 1018.21 1018.15
1015.57 1016.00 1016.25 1015.55 1014.65 1014.19 1013.77 1013.38 1013.47 1013.22 1012.96 1012.85 1013.00 1013.03 1012.94 1012.89 1012.93 1012.99 1013.08 1013.17 1013.22 1013.42 1013.90 1014.21 1014.50 1014.68 1015.04 1015.32 1015.59 1015.90 1016.24 1016.60 1016.81 1017.04 1017.27 1017.59 1017.94 1018.00 1018.00 1018.15 1018.22 1018.32 1018.42 1018.43 1018.41 1018.44 1018.54 1018.55 1018.41
1015.37 1015.97 1015.59 1015.12 1014.39 1013.89 1013.31 1013.00 1013.04 1012.66 1012.61 1012.46 1012.33 1012.74 1012.81 1012.83 1012.88 1013.15 1013.35 1013.39 1013.54 1013.68 1013.99 1014.52 1014.82 1015.14 1015.40 1015.71 1016.04 1016.30 1016.64 1017.03 1017.29 1017.58 1017.87 1017.88 1018.26 1018.61 1018.62 1018.60 1018.59 1018.67 1018.75 1018.75 1018.79 1018.77 1018.75 1018.73 1018.65
1015.25 1015.67 1015.40 1014.78 1014.04 1013.38 1012.64 1012.56 1012.09 1012.27 1011.88 1011.93 1011.98 1012.25 1012.39 1011.92 1012.84 1013.42 1013.78 1013.89 1014.13 1014.33 1014.33 1014.82 1015.15 1015.52 1015.84 1016.14 1016.36 1016.87 1017.10 1017.48 1017.79 1018.13 1018.36 1018.48 1018.50 1018.92 1019.10 1019.10 1019.05 1019.01 1019.04 1019.02 1019.09 1019.07 1019.03 1019.06 1018.93
1015.20 1015.43 1014.82 1013.93 1013.51 1012.91 1012.54 1012.55 1012.00 1011.79 1011.84 1011.90 1011.85 1011.88 1012.01 1011.99 1012.79 1013.70 1014.16 1014.32 1014.85 1014.96 1015.11 1015.08 1015.48 1015.84 1016.12 1016.53 1017.01 1017.23 1017.60 1017.92 1018.19 1018.52 1018.75 1018.87 1019.13 1019.29 1019.48 1019.60 1019.54 1019.50 1019.49 1019.45 1019.43 1019.38 1019.35 1019.28 1019.18
1015.16 1014.80 1013.87 1012.95 1012.65 1012.52 1012.31 1012.23 1012.08 1012.10 1011.98 1011.94 1011.79 1011.98 1012.37 1012.41 1012.88 1013.57 1013.98 1014.04 1014.53 1015.01 1015.42 1015.57 1015.63 1016.12 1016.36 1016.84 1017.29 1017.53 1017.93 1018.25 1018.58 1018.89 1019.15 1019.24 1019.43 1019.63 1019.82 1019.94 1019.96 1019.96 1019.98 1019.93 1019.81 1019.76 1019.72 1019.53 1019.39
1014.78 1014.27 1013.41 1012.68 1012.26 1012.29 1012.27 1012.17 1011.99 1012.02 1011.99 1011.62 1011.51 1011.84 1012.45 1012.68 1013.08 1013.47 1013.95 1013.86 1014.19 1014.81 1015.52 1015.75 1016.02 1016.41 1016.70 1017.18 1017.52 1017.91 1018.17 1018.56 1018.88 1019.12 1019.33 1019.49 1019.57 1019.80 1019.92 1020.00 1020.16 1020.18 1020.13 1020.09 1020.06 1019.97 1019.91 1019.84 1019.66
1014.82 1013.84 1013.38 1012.64 1012.33 1012.41 1012.39 1012.16 1012.04 1011.88 1011.43 1011.32 1011.46 1011.68 1012.13 1012.49 1012.78 1013.02 1013.37 1013.74 1014.52 1015.07 1015.47 1015.86 1016.13 1016.55 1017.00 1017.35 1017.76 1018.12 1018.38 1018.66 1019.03 1019.37 1019.50 1019.55 1019.71 1019.97 1020.07 1020.15 1020.29 1020.32 1020.33 1020.32 1020.31 1020.27 1020.08 1019.89 1019.67
1014.66 1013.79 1013.27 1012.72 1012.55 1012.46 1012.38 1012.32 1012.23 1011.75 1011.32 1011.38 1011.52 1011.82 1011.97 1012.20 1012.63 1013.10 1013.46 1013.96 1014.47 1014.93 1015.23 1015.71 1016.09 1016.44 1016.98 1017.45 1017.97 1018.42 1018.61 1018.89 1019.23 1019.45 1019.67 1019.73 1019.95 1020.16 1020.29 1020.40 1020.47 1020.53 1020.51 1020.50 1020.38 1020.29 1020.08 1019.96 1019.71
1013.99 1013.67 1013.20 1012.90 1012.56 1012.40 1012.43 1012.14 1012.49 1011.41 1011.14 1011.35 1011.63 1011.69 1011.90 1012.04 1012.16 1013.00 1013.38 1013.78 1014.14 1014.57 1014.98 1015.53 1016.01 1016.39 1016.87 1017.37 1017.84 1018.39 1018.73 1019.12 1019.40 1019.65 1019.88 1019.97 1020.12 1020.29 1020.43 1020.61 1020.73 1020.75 1020.73 1020.59 1020.47 1020.41 1020.19 1019.97 1019.80
1014.09 1014.00 1013.46 1012.73 1012.35 1012.30 1012.40 1012.21 1011.70 1010.98 1011.07 1011.21 1011.33 1011.52 1011.69 1011.74 1012.28 1012.17 1012.25 1012.72 1013.39 1014.09 1014.78 1015.43 1015.95 1016.36 1016.66 1017.20 1017.79 1018.29 1018.79 1019.18 1019.53 1019.80 1019.99 1020.04 1020.13 1020.43 1020.70 1020.82 1020.86 1020.88 1020.68 1020.47 1020.35 1020.24 1020.14 1019.97 1019.71
1014.45 1014.23 1013.81 1012.43 1012.10 1012.07 1012.40 1011.46 1010.91 1010.63 1011.03 1011.04 1011.02 1011.15 1011.41 1011.36 1011.40 1011.74 1011.96 1012.36 1013.10 1013.83 1014.34 1015.25 1015.68 1016.20 1016.68 1017.22 1017.86 1018.36 1018.97 1019.32 1019.62 1019.84 1019.98 1020.12 1020.39 1020.70 1020.84 1020.88 1020.94 1020.89 1020.61 1020.38 1020.31 1020.28 1020.07 1019.85 1019.59
1015.01 1014.75 1014.25 1013.19 1012.17 1012.31 1012.55 1011.76 1010.39 1009.92 1010.61 1010.53 1010.51 1010.63 1010.90 1011.13 1011.22 1011.25 1011.59 1011.97 1012.46 1013.13 1014.06 1014.82 1015.38 1016.02 1016.65 1017.37 1018.00 1018.59 1019.12 1019.46 1019.73 1019.87 1020.12 1020.44 1020.66 1020.83 1020.88 1020.95 1020.96 1020.83 1020.66 1020.55 1020.50 1020.35 1020.24 1019.76 1019.34
1015.53 1015.20 1014.51 1013.90 1013.07 1012.98 1013.00 1011.86 1010.80 1010.69 1010.84 1010.50 1010.57 1010.37 1010.40 1010.50 1010.12 1010.40 1011.01 1011.51 1012.15 1012.80 1013.55 1014.31 1015.18 1015.91 1016.67 1017.45 1018.33 1018.98 1019.36 1019.72 1019.91 1020.10 1020.27 1020.56 1020.79 1020.94 1020.93 1020.95 1020.95 1020.88 1020.74 1020.72 1020.70 1020.47 1020.14 1019.78 1019.27
1015.44 1015.38 1014.94 1014.00 1013.36 1013.40 1013.00 1012.40 1010.95 1010.40 1010.66 1010.23 1009.92 1009.83 1009.59 1009.47 1009.24 1009.82 1010.35 1011.03 1011.83 1012.57 1013.19 1013.92 1014.81 1015.80 1016.48 1017.48 1018.29 1019.07 1019.25 1019.84 1020.09 1020.15 1020.43 1020.80 1020.91 1020.88 1020.89 1020.97 1020.98 1020.94 1020.87 1020.89 1020.75 1020.47 1020.05 1019.43 1019.19
1015.61 1015.51 1014.94 1014.05 1013.57 1013.73 1013.02 1012.18 1010.22 1009.70 1009.49 1008.78 1008.26 1008.29 1008.29 1008.59 1008.92 1009.23 1009.79 1010.48 1011.07 1011.69 1012.43 1013.40 1014.15 1015.22 1015.95 1016.59 1017.42 1017.99 1018.74 1019.53 1019.87 1020.24 1020.57 1020.74 1020.79 1020.81 1020.81 1021.01 1020.96 1020.95 1020.95 1020.88 1020.77 1020.57 1020.19 1019.86 1019.73
1015.25 1015.30 1014.82 1014.76 1014.16 1013.83 1013.18 1011.50 1009.65 1008.14 1007.74 1007.11 1007.03 1006.75 1006.86 1007.06 1007.57 1008.21 1009.14 1009.70 1010.50 1011.06 1011.59 1012.56 1013.50 1014.52 1015.38 1016.20 1017.21 1018.10 1018.74 1019.55 1020.07 1020.35 1020.53 1020.66 1020.74 1020.83 1020.89 1020.93 1020.91 1020.95 1020.96 1020.89 1020.83 1020.66 1020.53 1020.34 1020.08
1014.99 1014.15 1014.38 1014.78 1015.31 1014.92 1013.82 1012.04 1009.75 1008.05 1007.27 1006.45 1005.85 1005.88 1005.57 1005.85 1006.45 1007.07 1007.85 1008.86 1009.30 1010.04 1011.10 1011.91 1012.96 1014.15 1015.12 1015.89 1016.55 1016.99 1017.70 1018.65 1019.23 1019.65 1020.23 1020.57 1020.73 1020.84 1020.90 1020.89 1020.96 1020.99 1021.00 1020.95 1020.79 1020.62 1020.71 1020.52 1020.27
1014.05 1013.85 1014.45 1014.92 1015.49 1015.42 1014.63 1013.87 1009.34 1008.08 1007.06 1005.48 1004.35 1004.29 1004.59 1004.86 1005.44 1006.10 1006.60 1007.38 1008.62 1009.69 1010.52 1011.53 1012.59 1013.80 1014.69 1015.43 1016.00 1016.67 1017.48 1018.13 1018.94 1019.61 1020.01 1020.36 1020.63 1020.77 1020.92 1020.93 1020.97 1020.97 1020.97 1020.87 1020.80 1020.78 1020.64 1020.58 1020.60
1013.88 1014.26 1014.91 1015.64 1016.18 1016.18 1014.26 1013.30 1010.08 1007.93 1005.92 1004.53 1004.02 1004.10 1004.33 1004.78 1005.28 1005.83 1006.44 1007.27 1008.33 1009.41 1010.35 1011.32 1012.38 1013.46 1014.47 1015.20 1015.92 1016.44 1017.08 1017.96 1018.74 1019.38 1019.78 1020.18 1020.50 1020.74 1020.92 1020.93 1020.99 1020.96 1020.87 1020.78 1020.82 1020.76 1020.75 1020.79 1020.76
1014.23 1014.70 1015.91 1016.97 1017.48 1015.74 1014.43 1013.31 1009.91 1007.07 1005.16 1004.84 1004.64 1004.56 1004.45 1004.85 1005.48 1005.91 1006.33 1006.93 1008.01 1008.87 1009.78 1010.96 1012.02 1013.33 1014.25 1014.92 1015.71 1016.38 1016.97 1017.60 1018.14 1018.77 1019.27 1019.72 1020.28 1020.64 1020.83 1020.90 1020.95 1020.83 1020.72 1020.72 1020.74 1020.75 1020.77 1020.77 1020.64
1014.43 1014.87 1015.92 1016.83 1017.43 1016.64 1014.71 1012.15 1008.44 1006.42 1004.88 1004.72 1004.66 1004.61 1004.61 1004.99 1005.41 1005.82 1006.22 1006.78 1007.57 1008.42 1009.39 1010.47 1011.61 1012.83 1013.83 1014.67 1015.52 1016.19 1016.68 1017.33 1017.98 1018.41 1018.96 1019.41 1019.98 1020.40 1020.66 1020.73 1020.71 1020.68 1020.69 1020.63 1020.70 1020.72 1020.72 1020.65 1020.53
1014.81 1015.18 1015.19 1016.34 1017.57 1017.30 1014.03 1010.91 1008.43 1005.58 1005.09 1005.03 1005.06 1004.99 1005.09 1005.28 1005.62 1005.91 1006.29 1006.63 1007.49 1008.28 1008.82 1009.64 1011.03 1012.36 1013.44 1014.29 1015.21 1015.94 1016.51 1017.09 1017.67 1018.26 1018.73 1019.21 1019.74 1020.19 1020.47 1020.59 1020.58 1020.60 1020.49 1020.57 1020.62 1020.59 1020.50 1020.47 1020.41
1015.05 1015.40 1015.96 1016.91 1017.47 1016.64 1013.57 1011.58 1008.77 1006.27 1005.62 1005.68 1005.72 1005.88 1005.78 1005.88 1006.20 1006.58 1006.92 1007.21 1007.66 1008.18 1008.98 1009.87 1010.67 1011.61 1012.83 1013.88 1014.72 1015.52 1016.25 1016.79 1017.47 1018.12 1018.51 1019.00 1019.47 1020.04 1020.43 1020.52 1020.44 1020.41 1020.25 1020.35 1020.31 1020.25 1020.08 1019.99 1019.91
1015.74 1015.98 1016.47 1016.81 1016.99 1016.32 1014.52 1010.47 1007.84 1006.77 1006.51 1006.42 1006.41 1006.66 1006.49 1006.35 1006.45 1006.60 1007.22 1007.65 1008.03 1008.56 1009.15 1009.85 1010.71 1011.67 1012.81 1013.57 1014.57 1015.38 1016.17 1016.70 1017.22 1017.86 1018.19 1018.85 1019.37 1019.90 1020.34 1020.36 1020.20 1020.08 1020.19 1020.13 1020.13 1020.05 1019.85 1019.76 1019.65
1015.83 1015.87 1016.21 1016.98 1016.81 1015.97 1014.45 1009.41 1007.31 1006.42 1006.65 1006.43 1006.18 1006.46 1006.51 1006.59 1006.67 1006.89 1007.06 1007.71 1008.27 1008.77 1009.42 1009.97 1010.69 1011.51 1012.36 1013.23 1014.16 1015.00 1015.83 1016.48 1017.10 1017.65 1018.16 1018.77 1019.07 1019.66 1020.02 1020.06 1019.92 1019.83 1020.08 1020.06 1019.96 1019.81 1019.68 1019.59 1019.45
Wind_Speed
2 2 2 4 2 3 3 6 1 3 3 2 1 3 6 2 5 3 1 3 10 11 11 12 11 13 12 12 12 11 10 12 12 12 13 12 13 12 12 12 11 11 11 10 9 8 7 5 4
2 2 4 2 3 2 4 4 7 7 3 3 1 1 1 3 1 2 5 5 11 12 10 10 11 13 13 12 11 10 10 10 11 12 12 12 11 11 10 10 10 10 9 9 9 9 9 9 7
2 3 4 3 4 8 5 6 10 3 4 4 2 1 2 2 1 5 1 9 10 11 10 11 12 13 13 12 11 10 10 10 11 10 10 10 10 9 9 9 8 8 8 7 7 7 8 9 8
2 3 3 3 8 6 6 2 4 2 2 3 1 3 2 1 2 3 4 10 10 9 10 12 12 13 13 12 12 11 11 11 10 9 9 9 10 9 9 9 8 8 7 7 7 7 7 8 8
3 2 2 4 8 5 4 4 2 2 1 2 3 1 3 1 1 7 7 7 11 8 7 10 11 12 12 12 12 12 12 11 11 10 11 12 12 12 12 12 13 16 15 14 12 11 10 10 7
3 2 2 11 12 4 4 4 2 3 3 3 2 4 4 1 7 6 6 9 7 10 7 9 9 10 11 12 12 13 12 12 13 15 15 16 15 16 16 15 15 16 15 14 15 15 14 15 15
5 3 5 2 4 11 4 5 6 6 5 6 3 6 2 6 9 7 7 8 8 9 10 7 8 11 14 15 15 15 15 16 17 17 17 17 17 16 16 16 15 14 14 14 14 14 14 14 14
4 3 3 5 8 6 3 6 4 8 8 1 5 6 5 6 9 8 6 6 6 6 8 7 7 7 8 9 16 15 16 17 17 17 16 16 17 15 15 14 15 15 14 14 14 14 14 13 14
2 2 4 8 7 3 2 2 2 0 2 2 5 2 3 10 13 8 8 5 6 4 3 6 7 7 9 9 10 13 16 16 15 13 14 11 7 9 10 13 14 14 14 14 14 14 14 14 12
4 5 9 4 6 3 3 5 3 1 3 4 3 2 2 10 13 12 11 12 8 8 5 5 10 9 9 8 9 9 9 8 8 8 8 6 7 8 7 9 13 13 14 13 14 14 13 11 7
4 6 10 3 5 4 4 3 4 4 4 7 7 4 6 8 11 12 8 10 9 9 7 8 9 8 9 7 6 4 4 5 5 7 6 6 5 5 5 4 5 5 9 6 8 8 6 9 7
3 8 9 3 11 2 4 2 3 6 5 1 3 2 7 14 14 15 14 13 12 11 10 9 9 8 8 6 5 6 5 5 5 5 6 4 4 5 5 4 5 5 5 7 7 5 8 9 9
4 6 4 9 11 6 1 8 6 6 8 3 1 4 10 12 11 5 6 7 10 11 10 10 9 9 8 8 6 5 5 5 5 5 6 4 4 4 3 4 4 5 5 5 6 6 7 8 9
4 5 11 8 9 5 8 12 7 9 6 8 6 8 8 12 13 5 8 12 12 10 11 10 10 9 9 8 8 6 5 6 5 5 5 6 4 4 4 4 4 4 4 4 5 6 6 7 8
4 5 7 8 5 10 4 7 13 7 6 9 10 8 8 13 7 15 14 13 14 10 10 11 10 10 9 9 8 6 5 5 5 4 5 6 6 5 4 3 3 4 4 5 5 6 6 7 7
3 1 2 4 7 5 9 17 5 9 9 13 11 10 11 12 17 13 11 12 11 11 13 10 10 10 9 9 7 6 5 5 5 4 4 7 6 5 4 3 3 4 4 5 5 5 6 6 7
3 4 4 7 8 3 7 9 10 10 10 15 13 10 11 10 8 11 11 13 14 14 13 12 11 11 10 9 7 7 7 5 4 4 5 6 5 5 4 3 3 5 4 5 5 6 5 7 8
4 4 5 6 2 2 2 16 11 5 5 12 9 10 10 12 18 13 12 11 12 13 13 13 10 11 10 7 7 5 5 4 4 4 4 5 4 4 4 3 4 4 4 5 5 6 5 6 8
1 2 5 5 2 2 6 11 15 12 6 14 14 13 12 13 12 9 11 12 11 10 13 14 14 12 10 6 5 3 4 3 3 4 5 4 3 4 4 3 3 4 5 5 6 5 7 5 8
5 5 12 9 7 5 8 11 22 18 11 16 20 18 20 16 8 8 10 13 15 16 16 15 15 15 10 7 3 3 4 2 3 4 5 4 4 4 3 3 3 4 3 5 6 6 4 3 8
5 7 8 10 4 5 6 8 13 6 10 15 11 18 16 18 17 13 12 15 13 16 18 17 16 16 11 8 7 5 5 4 3 3 3 2 3 3 3 3 3 3 3 3 4 4 6 4 4
3 9 9 5 1 4 2 8 8 7 9 6 10 12 19 16 13 12 15 15 17 15 15 16 16 15 11 11 7 6 5 4 3 3 3 3 3 3 3 3 3 2 2 3 3 4 3 3 4
8 2 5 3 4 2 2 1 8 4 5 15 10 11 13 15 14 15 17 19 15 14 15 14 15 14 11 11 8 6 5 3 4 4 5 4 3 3 3 3 2 2 1 3 3 3 4 3 3
1 2 3 4 2 2 8 7 5 4 8 7 3 4 5 7 9 10 9 11 14 12 13 13 16 13 12 11 9 9 9 8 6 5 4 3 2 2 2 2 2 1 2 3 3 3 4 4 3
3 4 4 5 4 8 3 4 7 14 18 8 9 9 7 2 6 7 12 14 14 17 16 14 16 14 12 11 9 8 8 8 8 7 5 5 2 1 1 1 1 1 2 3 3 3 3 3 3
5 5 5 6 3 5 1 8 7 9 13 9 8 8 8 5 5 8 11 12 14 17 17 17 17 14 13 11 10 8 8 5 5 6 5 4 3 2 2 0 1 2 3 3 3 2 3 3 3
4 2 3 5 2 1 5 7 8 14 4 6 8 8 8 7 5 6 7 11 13 15 18 19 17 14 13 12 9 8 8 8 7 7 5 4 4 2 3 1 0 1 2 2 3 2 3 3 4
3 1 4 3 3 6 5 5 7 11 8 8 15 12 10 7 5 2 4 6 9 12 12 14 15 17 15 12 10 8 8 7 7 7 7 5 4 3 3 2 1 1 3 2 3 3 3 3 4
2 2 2 2 4 4 3 6 7 5 5 6 5 7 8 7 2 5 5 5 6 8 11 12 13 14 13 12 10 10 8 8 8 6 6 5 5 4 3 3 3 3 3 2 3 3 3 4 5
3 7 7 5 6 5 3 11 8 5 4 6 4 5 6 5 6 5 6 7 7 9 10 12 11 12 12 11 10 9 8 8 8 7 7 7 6 4 3 3 3 3 2 2 2 3 4 5 6
Wind_Direction
96 42 81 44 59 59 238 243 251 247 244 250 162 169 195 153 175 203 337 160 130 136 139 138 133 137 134 131 130 127 124 118 112 106 102 96 89 84 80 74 68 66 65 64 57 49 40 39 49
123 108 49 88 127 203 252 218 220 233 228 148 119 81 184 208 193 142 141 161 144 140 139 134 132 129 128 128 127 127 124 117 112 109 105 100 97 92 84 79 73 66 62 58 53 49 42 36 28
114 50 108 156 179 207 228 214 231 239 263 203 183 205 193 209 202 173 268 149 142 143 143 143 135 129 125 121 117 116 119 117 109 105 103 100 93 85 81 73 63 56 48 41 40 36 28 25 19
130 35 49 168 221 246 202 208 196 173 105 242 180 251 290 269 195 184 131 149 141 146 140 138 135 132 128 123 118 112 107 102 98 94 89 88 88 83 73 66 55 46 38 30 26 24 18 11 360
46 68 179 226 240 240 231 248 206 237 270 207 180 248 254 307 280 142 130 136 129 102 109 128 127 129 126 124 121 113 105 100 95 93 91 78 73 71 67 60 52 52 49 43 38 29 23 18 2
82 101 173 226 231 228 229 207 198 239 213 240 190 161 243 249 171 142 120 106 120 117 101 103 102 105 111 106 101 98 100 95 90 86 82 76 73 71 72 68 61 54 48 44 40 38 32 26 19
137 136 223 223 258 244 225 155 192 222 244 238 156 176 246 195 182 146 120 98 100 110 113 93 92 93 87 89 91 93 94 93 90 89 88 85 77 70 66 62 59 54 46 41 36 30 26 17 18
126 139 201 212 234 268 227 179 214 184 241 78 165 207 220 191 148 130 108 108 104 99 108 113 97 94 99 99 90 94 95 95 92 88 83 77 74 66 58 51 48 45 38 33 28 22 19 12 12
134 180 209 227 202 218 153 232 210 258 181 213 204 221 326 136 125 129 131 107 118 88 132 113 108 107 104 101 98 93 93 92 89 83 79 73 69 67 59 53 46 42 33 28 23 17 11 4 1
173 211 222 207 187 212 245 197 229 192 211 251 261 195 81 146 155 159 172 160 150 149 152 131 129 126 112 113 107 98 94 88 86 83 81 79 74 67 67 53 46 41 31 23 18 11 5 2 353
215 227 233 227 200 190 226 238 205 192 234 228 215 184 153 164 181 175 178 176 153 151 152 159 136 130 123 121 113 109 102 99 88 82 79 75 75 62 57 53 34 28 25 20 10 4 5 353 346
229 235 241 266 252 215 221 219 235 191 228 172 256 208 166 177 193 194 181 169 164 166 161 156 145 136 125 120 120 120 113 106 93 79 74 73 68 57 48 41 32 31 22 12 10 357 348 345 338
234 241 259 248 251 242 283 241 230 233 241 217 14 188 195 194 195 189 170 153 160 175 165 165 154 142 137 126 122 118 112 104 104 88 73 75 72 65 53 43 32 27 15 14 2 354 348 341 337
232 239 256 259 256 242 230 255 143 240 262 223 211 222 215 210 193 143 174 180 184 174 173 162 161 149 144 138 135 127 118 114 101 92 85 76 73 62 48 38 32 25 13 6 3 349 339 333 330
270 285 293 239 232 239 192 270 221 226 194 218 218 219 222 224 177 201 194 187 181 182 163 169 160 154 144 138 131 130 129 119 109 102 88 80 69 66 63 52 32 11 8 5 356 348 338 325 326
251 217 296 298 209 233 164 259 239 223 201 235 232 220 214 221 212 214 198 189 175 167 173 165 161 156 142 140 134 129 125 119 115 105 88 73 71 66 63 46 29 9 5 3 356 347 331 326 327
339 250 234 300 205 137 175 254 239 236 194 234 235 232 223 234 228 220 200 194 177 177 168 168 158 157 145 132 126 122 121 114 110 99 90 84 77 66 64 50 25 13 13 13 356 346 338 326 327
230 236 252 248 346 85 151 260 265 269 219 248 255 246 232 233 233 220 202 192 179 176 171 164 158 150 137 122 115 108 107 103 103 104 94 89 72 64 64 52 34 22 17 13 0 340 337 316 321
266 243 271 258 278 235 240 260 272 268 229 255 245 247 240 233 242 207 205 187 171 169 165 166 156 157 146 143 136 137 146 142 116 104 104 103 93 71 75 57 35 25 24 10 0 341 345 349 346
244 264 268 281 250 183 274 262 278 262 233 232 239 233 236 232 214 209 196 182 184 178 175 171 169 163 164 154 137 140 146 144 126 129 121 103 92 74 82 52 36 27 13 10 6 7 353 341 5
218 215 240 242 330 244 280 272 258 277 238 254 248 237 238 225 220 209 187 192 179 182 178 174 170 168 165 137 123 100 95 93 123 155 145 110 95 80 70 59 43 18 11 1 359 8 18 347 354
255 219 239 232 49 240 84 289 287 277 270 254 252 228 232 220 213 203 190 185 188 185 176 173 165 165 160 156 152 152 160 154 165 142 139 133 96 76 61 51 35 12 353 351 354 17 1 359 350
227 162 192 193 191 5 240 283 266 272 284 277 252 228 230 227 211 198 190 191 184 170 172 166 160 160 157 165 161 151 143 122 131 130 137 128 105 83 58 52 39 20 4 7 12 357 350 354 341
133 109 57 53 88 332 228 191 275 240 225 281 331 330 275 229 207 201 191 166 169 162 163 160 160 160 158 161 161 160 152 149 145 153 155 148 130 116 63 58 33 11 13 13 13 355 344 329 314
195 84 336 337 1 234 336 260 260 273 269 261 290 295 292 237 211 188 173 172 167 169 164 162 163 161 162 158 158 160 155 156 158 162 160 153 151 158 122 110 349 15 14 356 354 345 323 300 284
192 169 170 242 247 292 1 245 246 237 270 292 283 277 302 278 214 200 189 182 175 172 167 166 166 159 162 160 162 157 150 152 159 157 152 147 154 159 159 155 358 12 6 4 338 318 301 287 290
257 182 193 105 119 355 238 294 286 276 305 3 359 340 304 303 256 211 183 178 172 175 174 168 163 161 165 164 154 158 154 157 159 153 146 149 142 160 166 191 299 26 35 352 295 280 288 293 287
159 284 67 6 272 272 287 277 240 288 352 2 358 352 339 353 339 265 185 170 177 171 166 164 166 166 166 158 159 161 163 156 154 156 157 155 143 163 180 204 142 56 52 318 307 295 298 299 305
48 343 35 156 165 215 298 261 213 238 284 334 351 342 351 350 272 198 187 167 157 155 162 161 158 151 160 161 160 156 162 159 153 164 155 161 154 165 185 203 114 59 18 6 328 321 321 322 311
189 206 172 163 255 230 189 257 272 280 299 287 283 342 349 324 285 235 177 158 158 158 158 163 159 161 167 161 158 160 156 156 161 167 168 170 156 161 172 195 131 93 34 347 336 338 343 324 340